Ignacio, CO

1:27 PM MST on December 10, 2016 (GMT -0700)
Durango-La Plata County

Weather History for KDRO - December, 2012

Change the Weather History Date:

Tuesday, December 4, 2012

  Actual Average Record
Temperature  
Mean Temperature 34 °F 29 °F  
Max Temperature 50 °F 42 °F 64 °F (2006)
Min Temperature 17 °F 17 °F 3 °F (1971)
Degree Days  
Heating Degree Days 31 36  
Month to date heating degree days 109 142  
Since 1 July heating degree days 1558 1815  
Cooling Degree Days 0 0  
Month to date cooling degree days 0 0  
Year to date cooling degree days 477 243  
Moisture  
Dew Point 18 °F    
Average Humidity 57    
Maximum Humidity 92    
Minimum Humidity 22    
Precipitation  
Precipitation 0.00 in 0.04 in 0.30 in (1983)
Month to date precipitation T 0.14  
Year to date precipitation 6.91 15.04  
Sea Level Pressure  
Sea Level Pressure 30.46 in    
Wind  
Wind Speed 3 mph (ENE)    
Max Wind Speed 10 mph    
Max Gust Speed 13 mph    
Visibility 10 miles    
Events      
T = Trace of Precipitation, MM = Missing Value Source: NWS Daily Summary

Daily Weather History Graph

Daily Weather History Graph

Search for Another Location

Airport or City:

Trip Planner

Search our weather history database for the weather conditions in past years. The results will help you decide how hot, cold, wet, or windy it might be!

Date:

Astronomy

Dec. 04, 2012 Rise Set
Actual Time 7:09 AM MST 4:53 PM MST
Civil Twilight 6:40 AM MST 5:22 PM MST
Nautical Twilight 6:08 AM MST 5:54 PM MST
Astronomical Twilight 5:36 AM MST 6:26 PM MST
Moon 10:38 PM MST (12/4) 11:09 AM MST (12/4)
Length of Visible Light 10h 41m
Length of Day
9h 44m
Waning Gibbous, 69% of the Moon is Illuminated
Dec 4
Waning Gibbous
Dec 6
Last Quarter
Dec 13
New
Dec 19
First Quarter
Dec 28
Full

Hourly Weather History & Observations

Time (MST) Temp. Windchill Dew Point Humidity Pressure Visibility Wind Dir Wind Speed Gust Speed Precip Events Conditions
12:53 AM 23.0 °F - 19.0 °F 85% 30.29 in 10.0 mi Calm Calm - N/A   Clear
1:53 AM 21.0 °F - 17.1 °F 85% 30.30 in 10.0 mi Calm Calm - N/A   Clear
2:53 AM 18.0 °F 11.1 °F 15.1 °F 88% 30.34 in 10.0 mi NE 4.6 mph - N/A   Clear
5:53 AM 19.9 °F - 15.1 °F 81% 30.41 in 10.0 mi Calm Calm - N/A   Clear
6:53 AM 18.0 °F - 15.1 °F 88% 30.47 in 10.0 mi Calm Calm - N/A   Clear
7:53 AM 21.0 °F 14.6 °F 16.0 °F 81% 30.50 in 10.0 mi North 4.6 mph - N/A   Clear
8:53 AM 26.1 °F - 17.1 °F 69% 30.53 in 10.0 mi Calm Calm - N/A   Clear
9:53 AM 34.0 °F 29.8 °F 21.9 °F 61% 30.54 in 10.0 mi East 4.6 mph - N/A   Clear
10:53 AM 37.0 °F 32.4 °F 21.9 °F 54% 30.52 in 10.0 mi East 5.8 mph - N/A   Clear
11:53 AM 39.9 °F 37.8 °F 26.1 °F 58% 30.51 in 10.0 mi East 3.5 mph - N/A   Clear
12:53 PM 45.0 °F 43.5 °F 24.1 °F 44% 30.47 in 10.0 mi Variable 3.5 mph - N/A   Clear
1:53 PM 48.0 °F - 17.1 °F 29% 30.43 in 10.0 mi Calm Calm - N/A   Clear
2:53 PM 50.0 °F - 14.0 °F 24% 30.44 in 10.0 mi WSW 6.9 mph - N/A   Clear
3:53 PM 48.9 °F - 17.1 °F 28% 30.43 in 10.0 mi SSW 3.5 mph - N/A   Clear
4:53 PM 45.0 °F - 19.9 °F 37% 30.44 in 10.0 mi Calm Calm - N/A   Clear
5:53 PM 41.0 °F - 19.9 °F 43% 30.48 in 10.0 mi Calm Calm - N/A   Clear
6:53 PM 35.1 °F 28.6 °F 17.1 °F 48% 30.51 in 10.0 mi NNE 8.1 mph - N/A   Clear
7:53 PM 32.0 °F 24.2 °F 16.0 °F 52% 30.53 in 10.0 mi North 9.2 mph - N/A   Clear
8:53 PM 30.0 °F - 16.0 °F 56% 30.53 in 10.0 mi Calm Calm - N/A   Clear
9:53 PM 26.1 °F 21.9 °F 15.1 °F 63% 30.50 in 10.0 mi East 3.5 mph - N/A   Clear
10:53 PM 28.0 °F - 17.1 °F 63% 30.46 in 10.0 mi Calm Calm - N/A   Clear
11:53 PM 26.1 °F - 17.1 °F 69% 30.44 in 10.0 mi Calm Calm - N/A   Clear